Location: Newark
(11.4947°N, 0.1467°E)
Time: 16:26:34
(UTC+00:00)

LightSail 2 - Visible Passes

Search period start: 20 November 2019 00:00
Search period end: 30 November 2019 00:00
Orbit: 699 x 728 km, 24.0° (Epoch: 20 November)

Date Brightness Start Highest point End Pass type
(mag) Time Alt. Az. Time Alt. Az. Time Alt. Az.
20 Nov 7.2 03:39:24 21° NE 03:39:24 21° NE 03:41:38 10° ENE visible
20 Nov 5.4 05:18:23 12° WNW 05:23:07 67° NNE 05:28:18 10° ESE visible
20 Nov 6.7 19:31:05 10° SSW 19:34:02 25° S 19:34:02 25° S visible
21 Nov 5.6 04:24:08 43° NNW 04:25:09 49° NNE 04:30:11 10° E visible
21 Nov 6.9 18:33:51 10° SSW 18:37:33 20° SSE 18:39:48 15° ESE visible
21 Nov 7.8 20:17:54 10° WSW 20:18:47 15° WSW 20:18:47 15° WSW visible
22 Nov 7.3 03:29:53 22° ENE 03:29:53 22° ENE 03:31:56 10° E visible
22 Nov 5.2 05:08:52 17° WNW 05:12:49 73° SSW 05:18:00 10° ESE visible
22 Nov 5.6 19:20:09 10° SW 19:24:33 49° S 19:24:33 49° S visible
23 Nov 5.0 04:14:37 77° NNW 04:14:53 81° NNE 04:20:05 10° ESE visible
23 Nov 6.1 18:22:32 10° SW 18:27:12 35° SSE 18:30:18 18° E visible
23 Nov 7.4 20:07:37 10° WSW 20:09:17 21° W 20:09:17 21° W visible
24 Nov 7.5 03:20:23 20° E 03:20:23 20° E 03:22:00 10° E visible
24 Nov 5.9 04:59:22 20° W 05:02:26 41° SSW 05:07:19 10° SE visible
24 Nov 4.9 19:09:37 10° WSW 19:14:44 90° N 19:15:03 79° ENE visible
25 Nov 5.5 04:05:07 55° S 04:05:07 55° S 04:09:37 10° SE visible
25 Nov 5.3 18:11:45 10° WSW 18:16:49 64° SSE 18:20:47 16° ENE visible
25 Nov 7.2 19:57:38 10° W 19:59:46 23° WNW 19:59:46 23° WNW visible
26 Nov 7.8 03:10:51 15° ESE 03:10:51 15° ESE 03:11:46 10° ESE visible
26 Nov 6.7 04:49:50 17° WSW 04:52:04 23° SSW 04:56:08 10° SSE visible
26 Nov 5.4 18:59:25 10° W 19:04:26 54° NNW 19:05:29 45° NNE visible
27 Nov 6.6 03:55:33 28° S 03:55:33 28° S 03:58:45 10° SE visible
27 Nov 5.2 18:01:20 10° WSW 18:06:28 75° NNW 18:11:11 12° ENE visible
27 Nov 7.1 19:47:51 10° WNW 19:50:09 21° NW 19:50:09 21° NW visible
28 Nov 7.3 04:40:14 11° SW 04:41:43 13° SSW 04:43:57 10° S visible
28 Nov 6.1 18:49:30 10° W 18:54:12 35° NNW 18:55:50 28° NNE visible
29 Nov 7.5 03:45:54 15° S 03:45:54 15° S 03:47:17 10° SSE visible
29 Nov 5.8 17:51:13 10° W 17:56:10 46° NNW 18:01:04 10° NE visible
29 Nov 7.1 19:38:11 10° WNW 19:40:29 19° NW 19:40:29 19° NW visible
